Weather History for KGTF - September, 2013

Change the Weather History Date:

Thursday, September 12, 2013

  Actual Average Record
Temperature  
Mean Temperature 66 °F 57 °F  
Max Temperature 84 °F 72 °F 92 °F (1919)
Min Temperature 48 °F 43 °F 29 °F (1949)
Degree Days  
Heating Degree Days 0 8  
Month to date heating degree days 3 79  
Since 1 July heating degree days 27 200  
Cooling Degree Days 1 1  
Month to date cooling degree days 58 14  
Year to date cooling degree days 427 290  
Growing Degree Days 16 (Base 50)    
Moisture  
Dew Point 45 °F    
Average Humidity 53    
Maximum Humidity 80    
Minimum Humidity 26    
Precipitation  
Precipitation 0.00 in 0.05 in 0.66 in (1978)
Month to date precipitation 0.38 0.62  
Year to date precipitation 9.27 11.95  
Snow  
Snow 0.00 in 0.00 in 2.00 in (1921)
Month to date snowfall 0.0 0.3  
Since 1 July snowfall 0.0 0.6  
Since 1 September snowfall 0.0 0.3  
Snow Depth 0.00 in    
Sea Level Pressure  
Sea Level Pressure 30.12 in    
Wind  
Wind Speed 6 mph (East)    
Max Wind Speed 13 mph    
Max Gust Speed 15 mph    
Visibility 10 miles    
Events      
T = Trace of Precipitation, MM = Missing Value Source: NWS Daily Summary

Daily Weather History Graph

Daily Weather History Graph

Search for Another Location

Airport or City:

Trip Planner

Search our weather history database for the weather conditions in past years. The results will help you decide how hot, cold, wet, or windy it might be!

Date:

Astronomy

Sep. 12, 2013 Rise Set
Actual Time 6:59 AM MDT 7:43 PM MDT
Civil Twilight 6:28 AM MDT 8:14 PM MDT
Nautical Twilight 5:51 AM MDT 8:50 PM MDT
Astronomical Twilight 5:12 AM MDT 9:29 PM MDT
Moon 2:57 PM MDT (9/12) No Moon Set
Length of Visible Light 13h 45m
Length of Day
12h 43m
Waxing Crescent, 51% of the Moon is Illuminated
Sep 12
Waxing Crescent
Sep 19
Full
Sep 26
Last Quarter
Oct 4
New
Oct 11
First Quarter

Hourly Weather History & Observations

Time (MDT) Temp. Dew Point Humidity Pressure Visibility Wind Dir Wind Speed Gust Speed Precip Events Conditions
12:53 AM 60.1 °F 44.1 °F 55% 30.22 in 10.0 mi East 8.1 mph - N/A   Clear
1:53 AM 57.9 °F 44.1 °F 60% 30.22 in 10.0 mi East 6.9 mph - N/A   Clear
2:53 AM 59.0 °F 45.0 °F 60% 30.22 in 10.0 mi ESE 8.1 mph - N/A   Clear
3:53 AM 59.0 °F 44.1 °F 58% 30.21 in 10.0 mi East 8.1 mph - N/A   Clear
4:53 AM 53.1 °F 44.1 °F 71% 30.22 in 10.0 mi SE 3.5 mph - N/A   Clear
5:53 AM 50.0 °F 44.1 °F 80% 30.23 in 10.0 mi South 3.5 mph - N/A   Clear
6:53 AM 53.1 °F 44.1 °F 71% 30.23 in 10.0 mi NE 3.5 mph - N/A   Clear
7:53 AM 54.0 °F 46.0 °F 75% 30.24 in 10.0 mi Calm Calm - N/A   Clear
8:53 AM 62.1 °F 45.0 °F 53% 30.22 in 10.0 mi SW 3.5 mph - N/A   Clear
9:53 AM 66.0 °F 44.1 °F 45% 30.21 in 10.0 mi Variable 3.5 mph - N/A   Clear
10:53 AM 70.0 °F 45.0 °F 41% 30.19 in 10.0 mi Calm Calm - N/A   Clear
11:07 AM 71.6 °F 44.6 °F 38% 30.25 in 10.0 mi South 4.6 mph - N/A   Clear
11:53 AM 73.9 °F 44.1 °F 34% 30.16 in 10.0 mi Variable 4.6 mph - N/A   Clear
12:53 PM 75.9 °F 46.0 °F 35% 30.13 in 10.0 mi East 10.4 mph - N/A   Clear
1:53 PM 78.1 °F 46.0 °F 32% 30.10 in 10.0 mi NE 8.1 mph - N/A   Clear
2:53 PM 82.0 °F 44.1 °F 26% 30.06 in 10.0 mi ENE 11.5 mph - N/A   Clear
3:53 PM 82.0 °F 44.1 °F 26% 30.03 in 10.0 mi East 5.8 mph - N/A   Clear
4:53 PM 82.0 °F 44.1 °F 26% 30.01 in 10.0 mi NE 5.8 mph - N/A   Clear
5:53 PM 82.0 °F 45.0 °F 27% 30.01 in 10.0 mi NNE 12.7 mph - N/A   Clear
6:53 PM 80.1 °F 45.0 °F 29% 29.99 in 10.0 mi NNE 8.1 mph - N/A   Clear
7:53 PM 71.1 °F 46.0 °F 41% 29.99 in 10.0 mi North 6.9 mph - N/A   Clear
8:53 PM 66.9 °F 46.0 °F 47% 29.98 in 10.0 mi NE 5.8 mph - N/A   Clear
9:53 PM 66.0 °F 46.0 °F 48% 29.97 in 10.0 mi South 4.6 mph - N/A   Clear
10:53 PM 62.1 °F 48.0 °F 60% 29.96 in 10.0 mi South 9.2 mph - N/A   Clear
11:53 PM 61.0 °F 48.0 °F 62% 29.95 in 10.0 mi SSW 9.2 mph - N/A   Clear